TimeEDT,TemperatureF,Dew PointF,Humidity,Sea Level PressureIn,VisibilityMPH,Wind Direction,Wind SpeedMPH,Gust SpeedMPH,PrecipitationIn,Events,Conditions,WindDirDegrees,DateUTC
12:53 AM,69.1,64.9,87,30.07,10.0,SSE,4.6,-,N/A,,Clear,160,2013-04-19 04:53:00
1:31 AM,69.8,66.2,88,30.05,10.0,SSE,6.9,-,N/A,,Overcast,160,2013-04-19 05:31:00
1:40 AM,69.8,66.2,88,30.05,10.0,South,6.9,-,N/A,,Overcast,170,2013-04-19 05:40:00
1:53 AM,70.0,66.0,87,30.04,10.0,SSE,5.8,-,N/A,,Overcast,160,2013-04-19 05:53:00
2:45 AM,71.6,66.2,83,30.02,10.0,SSE,10.4,-,N/A,,Overcast,150,2013-04-19 06:45:00
2:53 AM,70.0,66.0,87,30.02,10.0,South,15.0,24.2,N/A,,Overcast,170,2013-04-19 06:53:00
3:53 AM,68.0,64.9,90,30.00,10.0,SSE,6.9,-,N/A,,Overcast,150,2013-04-19 07:53:00
4:53 AM,69.1,66.0,90,29.99,10.0,South,9.2,-,N/A,,Mostly Cloudy,170,2013-04-19 08:53:00
5:13 AM,69.8,66.2,88,29.99,10.0,South,6.9,-,N/A,,Mostly Cloudy,170,2013-04-19 09:13:00
5:53 AM,70.0,66.0,87,29.99,10.0,South,10.4,-,N/A,,Overcast,180,2013-04-19 09:53:00
6:53 AM,69.1,66.0,90,30.00,10.0,South,6.9,-,N/A,,Clear,190,2013-04-19 10:53:00
7:53 AM,72.0,68.0,87,30.01,10.0,South,8.1,-,N/A,,Clear,190,2013-04-19 11:53:00
8:53 AM,75.0,68.0,79,30.01,10.0,South,10.4,-,N/A,,Clear,190,2013-04-19 12:53:00
9:20 AM,75.2,68.0,78,30.01,10.0,South,9.2,-,N/A,,Mostly Cloudy,190,2013-04-19 13:20:00
9:53 AM,75.9,68.0,76,30.01,10.0,SSW,12.7,23.0,0.00,,Mostly Cloudy,200,2013-04-19 13:53:00
10:51 AM,80.6,68.0,65,30.00,10.0,SSW,16.1,29.9,N/A,,Mostly Cloudy,200,2013-04-19 14:51:00
10:53 AM,79.0,66.9,66,30.00,10.0,SSW,18.4,28.8,N/A,,Mostly Cloudy,200,2013-04-19 14:53:00
11:34 AM,80.6,69.8,70,29.99,10.0,South,21.9,32.2,0.00,,Mostly Cloudy,190,2013-04-19 15:34:00
11:53 AM,80.1,68.0,67,29.99,10.0,SSW,18.4,34.5,0.00,,Mostly Cloudy,200,2013-04-19 15:53:00
12:53 PM,79.0,68.0,69,29.98,10.0,South,16.1,32.2,N/A,,Scattered Clouds,190,2013-04-19 16:53:00
1:22 PM,78.8,69.8,74,29.96,10.0,South,19.6,27.6,N/A,,Overcast,170,2013-04-19 17:22:00
1:35 PM,75.2,69.8,83,29.97,1.5,SSW,27.6,41.4,0.00,Rain,Light Rain,200,2013-04-19 17:35:00
1:42 PM,71.6,68.0,88,29.97,0.5,SSW,18.4,41.4,0.18,Fog-Rain,Heavy Rain,200,2013-04-19 17:42:00
1:53 PM,72.0,68.0,87,29.97,10.0,South,13.8,28.8,0.45,,Overcast,190,2013-04-19 17:53:00
2:03 PM,73.4,69.8,88,29.96,10.0,South,12.7,-,N/A,,Mostly Cloudy,190,2013-04-19 18:03:00
2:24 PM,75.2,71.6,89,29.95,10.0,SSW,13.8,26.5,N/A,,Mostly Cloudy,200,2013-04-19 18:24:00
2:53 PM,75.9,70.0,82,29.93,10.0,South,16.1,21.9,N/A,,Overcast,190,2013-04-19 18:53:00
3:39 PM,77.0,69.8,78,29.92,10.0,South,12.7,20.7,N/A,,Mostly Cloudy,180,2013-04-19 19:39:00
3:53 PM,77.0,68.0,74,29.91,10.0,South,13.8,25.3,N/A,,Mostly Cloudy,190,2013-04-19 19:53:00
4:53 PM,73.0,66.0,79,29.92,10.0,South,15.0,-,N/A,,Overcast,190,2013-04-19 20:53:00
5:53 PM,75.0,66.9,76,29.90,10.0,South,17.3,25.3,N/A,,Mostly Cloudy,190,2013-04-19 21:53:00
6:53 PM,73.9,66.0,76,29.90,10.0,South,15.0,23.0,0.00,,Mostly Cloudy,190,2013-04-19 22:53:00
7:53 PM,73.0,68.0,84,29.89,10.0,South,16.1,26.5,N/A,,Scattered Clouds,180,2013-04-19 23:53:00
8:15 PM,73.4,69.8,88,29.90,10.0,South,19.6,28.8,N/A,,Mostly Cloudy,190,2013-04-20 00:15:00
8:53 PM,73.0,69.1,87,29.90,10.0,South,16.1,23.0,N/A,,Mostly Cloudy,180,2013-04-20 00:53:00
9:12 PM,73.4,69.8,88,29.90,10.0,South,16.1,26.5,N/A,,Mostly Cloudy,190,2013-04-20 01:12:00
9:34 PM,73.4,69.8,88,29.90,10.0,South,17.3,26.5,N/A,,Overcast,180,2013-04-20 01:34:00
9:53 PM,73.9,69.1,85,29.90,10.0,South,18.4,26.5,N/A,,Overcast,180,2013-04-20 01:53:00
10:14 PM,73.4,69.8,88,29.90,10.0,South,15.0,32.2,N/A,,Overcast,190,2013-04-20 02:14:00
10:31 PM,69.8,66.2,88,29.92,1.8,WSW,17.3,35.7,0.00,Rain,Heavy Rain,250,2013-04-20 02:31:00
10:37 PM,69.8,66.2,88,29.92,0.8,SSW,12.7,35.7,0.16,Rain,Heavy Rain,210,2013-04-20 02:37:00
10:43 PM,68.0,66.2,94,29.91,1.5,SW,11.5,19.6,0.37,Rain,Light Rain,220,2013-04-20 02:43:00
10:45 PM,68.0,64.4,88,29.91,2.0,SSW,9.2,19.6,0.38,Rain-Thunderstorm,Light Thunderstorms and Rain,210,2013-04-20 02:45:00
10:53 PM,68.0,64.9,90,29.91,7.0,SSW,9.2,-,0.38,Rain-Thunderstorm,Light Thunderstorms and Rain,200,2013-04-20 02:53:00
11:17 PM,68.0,66.2,94,29.90,4.0,SW,8.1,-,0.10,Rain,Rain,230,2013-04-20 03:17:00
11:53 PM,68.0,66.0,93,29.90,3.0,SSW,6.9,-,0.23,Rain,Heavy Rain,200,2013-04-20 03:53:00